Weather History for Montevideo, MN

Change the Weather History Date:

Tuesday, March 4, 2014

  Actual Average Record
Temperature  
Mean Temperature 12 °F -  
Max Temperature 17 °F 35 °F 63 °F (1968)
Min Temperature 6 °F 15 °F -14 °F (1952)
Degree Days  
Heating Degree Days 54    
Moisture  
Dew Point 8 °F    
Average Humidity 85    
Maximum Humidity 93    
Minimum Humidity 73    
Precipitation  
Precipitation 0.01 in - - ()
Sea Level Pressure  
Sea Level Pressure 30.17 in    
Wind  
Wind Speed 9 mph (ESE)    
Max Wind Speed 14 mph    
Max Gust Speed 21 mph    
Visibility 6 miles    
Events Snow    
Averages and records for this station are not official NWS values.
T = Trace of Precipitation, MM = Missing Value Source: NWS Daily Summary

Daily Weather History Graph

Daily Weather History Graph

Search for Another Location

Airport:

Trip Planner

Search our weather history database for the weather conditions in past years. The results will help you decide how hot, cold, wet, or windy it might be!

Date:

Astronomy

Mar. 04, 2014 Rise Set
Actual Time 6:55 AM CST 6:14 PM CST
Civil Twilight 6:25 AM CST 6:43 PM CST
Nautical Twilight 5:52 AM CST 7:17 PM CST
Astronomical Twilight 5:17 AM CST 7:51 PM CST
Moon 8:31 AM CST (3/4) 10:35 PM CST (3/4)
Length of Visible Light 12h 17m
Length of Day
11h 19m
Waxing Crescent, 15% of the Moon is Illuminated
Mar 4
Waxing Crescent
Mar 8
First Quarter
Mar 16
Full
Mar 23
Last Quarter
Mar 30
New

Hourly Weather History & Observations

Time (CST) Temp. Windchill Dew Point Humidity Pressure Visibility Wind Dir Wind Speed Gust Speed Precip Events Conditions
12:14 AM 8.6 °F -4.7 °F 5.0 °F 85% 30.15 in 10.0 mi SSE 9.2 mph - N/A   Overcast
12:34 AM 8.6 °F -4.7 °F 5.0 °F 85% 30.15 in 10.0 mi SSE 9.2 mph - N/A   Overcast
12:53 AM 8.6 °F -2.6 °F 5.0 °F 85% 30.15 in 10.0 mi SE 6.9 mph - N/A   Overcast
1:14 AM 8.6 °F -3.7 °F 5.0 °F 85% 30.15 in 10.0 mi SE 8.1 mph - N/A   Overcast
1:34 AM 8.6 °F -4.7 °F 5.0 °F 85% 30.14 in 10.0 mi SSE 9.2 mph - N/A   Overcast
1:53 AM 8.6 °F -5.5 °F 5.0 °F 85% 30.14 in 10.0 mi SSE 10.4 mph - N/A   Overcast
2:14 AM 8.6 °F -4.7 °F 5.0 °F 85% 30.13 in 10.0 mi SE 9.2 mph - N/A   Overcast
2:34 AM 8.6 °F -3.7 °F 5.0 °F 85% 30.14 in 10.0 mi SE 8.1 mph - N/A   Overcast
2:54 AM 8.6 °F -2.6 °F 5.0 °F 85% 30.14 in 10.0 mi SE 6.9 mph - N/A   Overcast
3:14 AM 8.6 °F -5.5 °F 5.0 °F 85% 30.12 in 10.0 mi SE 10.4 mph - N/A   Overcast
3:34 AM 8.6 °F -3.7 °F 5.0 °F 85% 30.13 in 10.0 mi SE 8.1 mph - N/A   Overcast
3:54 AM 8.6 °F -2.6 °F 6.8 °F 92% 30.13 in 10.0 mi ESE 6.9 mph - N/A   Overcast
4:14 AM 8.6 °F -3.7 °F 6.8 °F 92% 30.13 in 10.0 mi ESE 8.1 mph - N/A   Overcast
4:34 AM 8.6 °F -3.7 °F 5.0 °F 85% 30.12 in 10.0 mi SE 8.1 mph - N/A Snow Light Snow
4:54 AM 6.8 °F -4.8 °F 5.0 °F 92% 30.12 in 7.0 mi SE 6.9 mph - N/A Snow Light Snow
5:14 AM 6.8 °F -3.5 °F 3.2 °F 85% 30.12 in 7.0 mi SE 5.8 mph - N/A Snow Light Snow
5:34 AM 6.8 °F -4.8 °F 3.2 °F 85% 30.12 in 10.0 mi SE 6.9 mph - N/A   Overcast
5:53 AM 6.8 °F -4.8 °F 3.2 °F 85% 30.13 in 10.0 mi ESE 6.9 mph - N/A Snow Light Snow
6:14 AM 6.8 °F -4.8 °F 5.0 °F 92% 30.13 in 10.0 mi ESE 6.9 mph - N/A   Overcast
6:34 AM 8.6 °F -5.5 °F 6.8 °F 92% 30.12 in 10.0 mi ESE 10.4 mph - N/A   Overcast
6:54 AM 8.6 °F -2.6 °F 5.0 °F 85% 30.13 in 10.0 mi ESE 6.9 mph - N/A   Overcast
7:14 AM 8.6 °F -4.7 °F 6.8 °F 92% 30.14 in 10.0 mi ESE 9.2 mph - N/A   Overcast
7:34 AM 8.6 °F -3.7 °F 6.8 °F 92% 30.14 in 5.0 mi East 8.1 mph - N/A Snow Light Snow
7:54 AM 8.6 °F -3.7 °F 6.8 °F 92% 30.15 in 4.0 mi ESE 8.1 mph - N/A Snow Light Snow
8:14 AM 8.6 °F -1.3 °F 6.8 °F 92% 30.16 in 3.0 mi ESE 5.8 mph - N/A Snow Light Snow
8:34 AM 10.4 °F -2.4 °F 6.8 °F 85% 30.16 in 3.0 mi East 9.2 mph - N/A Snow Light Snow
8:54 AM 10.4 °F -2.4 °F 6.8 °F 85% 30.17 in 2.5 mi East 9.2 mph - N/A Snow Light Snow
9:14 AM 10.4 °F -1.5 °F 6.8 °F 85% 30.16 in 5.0 mi East 8.1 mph - N/A Snow Light Snow
9:34 AM 10.4 °F -2.4 °F 6.8 °F 85% 30.15 in 7.0 mi ESE 9.2 mph - N/A   Overcast
9:54 AM 12.2 °F 0.7 °F 6.8 °F 79% 30.15 in 10.0 mi ESE 8.1 mph - N/A   Overcast
10:14 AM 12.2 °F -0.2 °F 8.6 °F 85% 30.15 in 10.0 mi East 9.2 mph - N/A   Overcast
10:34 AM 14.0 °F 1.2 °F 8.6 °F 79% 30.16 in 5.0 mi East 10.4 mph - N/A Snow Light Snow
10:54 AM 14.0 °F 0.5 °F 8.6 °F 79% 30.16 in 10.0 mi East 11.5 mph - N/A   Overcast
11:14 AM 15.8 °F 3.4 °F 8.6 °F 73% 30.14 in 4.0 mi East 10.4 mph - N/A Snow Light Snow
11:34 AM 15.8 °F 2.1 °F 8.6 °F 73% 30.15 in 7.0 mi ESE 12.7 mph - N/A Snow Light Snow
11:54 AM 15.8 °F 2.1 °F 8.6 °F 73% 30.15 in 7.0 mi ESE 12.7 mph - N/A Snow Light Snow
12:14 PM 15.8 °F 2.1 °F 10.4 °F 79% 30.15 in 10.0 mi ESE 12.7 mph 20.7 mph N/A Snow Light Snow
12:34 PM 17.6 °F 4.3 °F 10.4 °F 73% 30.14 in 5.0 mi ESE 12.7 mph - N/A Snow Light Snow
12:54 PM 17.6 °F 4.3 °F 10.4 °F 73% 30.14 in 10.0 mi ESE 12.7 mph - N/A   Overcast
1:14 PM 15.8 °F 2.1 °F 8.6 °F 73% 30.14 in 10.0 mi ESE 12.7 mph - N/A   Mostly Cloudy
1:33 PM 17.6 °F 3.7 °F 10.4 °F 73% 30.14 in 10.0 mi ESE 13.8 mph - N/A   Overcast
1:54 PM 17.6 °F 4.3 °F 10.4 °F 73% 30.13 in 10.0 mi ESE 12.7 mph - N/A   Mostly Cloudy
2:14 PM 17.6 °F 6.4 °F 10.4 °F 73% 30.14 in 7.0 mi SE 9.2 mph - N/A   Mostly Cloudy
2:33 PM 17.6 °F 5.0 °F 10.4 °F 73% 30.14 in 10.0 mi SE 11.5 mph - N/A   Overcast
2:54 PM 17.6 °F 5.7 °F 10.4 °F 73% 30.15 in 10.0 mi SE 10.4 mph - N/A   Overcast
3:14 PM 17.6 °F 4.3 °F 10.4 °F 73% 30.15 in 7.0 mi SE 12.7 mph - N/A Snow Light Snow
3:33 PM 17.6 °F 5.0 °F 10.4 °F 73% 30.15 in 10.0 mi ESE 11.5 mph - N/A   Overcast
3:54 PM 15.8 °F 2.7 °F 10.4 °F 79% 30.15 in 2.0 mi ESE 11.5 mph - N/A Snow Light Snow
4:14 PM 15.8 °F 3.4 °F 10.4 °F 79% 30.15 in 1.8 mi ESE 10.4 mph - N/A Snow Light Snow
4:33 PM 15.8 °F 2.1 °F 10.4 °F 79% 30.16 in 1.8 mi ESE 12.7 mph - N/A Snow Light Snow
4:54 PM 15.8 °F 4.2 °F 12.2 °F 86% 30.17 in 2.5 mi ESE 9.2 mph - N/A Snow Light Snow
5:14 PM 15.8 °F 3.4 °F 10.4 °F 79% 30.18 in 1.5 mi SE 10.4 mph - N/A Snow Light Snow
5:33 PM 14.0 °F 2.0 °F 10.4 °F 86% 30.18 in 1.2 mi ESE 9.2 mph - N/A Snow Light Snow
5:54 PM 14.0 °F 1.2 °F 10.4 °F 86% 30.18 in 2.5 mi SE 10.4 mph - N/A Snow Light Snow
6:14 PM 14.0 °F 2.0 °F 12.2 °F 93% 30.19 in 3.0 mi SE 9.2 mph - N/A Snow Light Snow
6:33 PM 14.0 °F 2.0 °F 12.2 °F 93% 30.20 in 2.0 mi ESE 9.2 mph - N/A Snow Light Snow
6:54 PM 14.0 °F 2.9 °F 12.2 °F 93% 30.20 in 2.5 mi ESE 8.1 mph - 0.01 in Snow Light Snow
7:14 PM 14.0 °F 3.9 °F 12.2 °F 93% 30.21 in 1.8 mi East 6.9 mph - N/A Snow Light Snow
7:33 PM 14.0 °F 2.0 °F 12.2 °F 93% 30.22 in 1.8 mi East 9.2 mph - N/A Snow Light Snow
7:54 PM 14.0 °F 1.2 °F 12.2 °F 93% 30.22 in 1.2 mi East 10.4 mph - N/A Snow Light Snow
8:14 PM 12.2 °F -1.8 °F 10.4 °F 92% 30.22 in 1.2 mi East 11.5 mph - N/A Snow Light Snow
8:33 PM 12.2 °F -0.2 °F 10.4 °F 92% 30.24 in 1.5 mi East 9.2 mph - N/A Snow Light Snow
8:54 PM 12.2 °F -1.0 °F 10.4 °F 92% 30.24 in 1.5 mi East 10.4 mph - N/A Snow Light Snow
9:14 PM 12.2 °F -1.8 °F 10.4 °F 92% 30.24 in 1.8 mi East 11.5 mph - N/A Snow Light Snow
9:33 PM 12.2 °F -1.8 °F 10.4 °F 92% 30.25 in 2.5 mi East 11.5 mph - N/A Snow Light Snow
9:54 PM 12.2 °F -1.0 °F 10.4 °F 92% 30.26 in 2.5 mi East 10.4 mph - N/A Snow Light Snow
10:14 PM 12.2 °F 0.7 °F 10.4 °F 92% 30.26 in 2.5 mi East 8.1 mph - N/A Snow Light Snow
10:33 PM 12.2 °F -0.2 °F 10.4 °F 92% 30.26 in 1.8 mi East 9.2 mph - N/A Snow Light Snow
10:54 PM 12.2 °F -1.8 °F 10.4 °F 92% 30.27 in 2.5 mi ESE 11.5 mph - N/A Snow Light Snow
11:14 PM 12.2 °F -1.0 °F 10.4 °F 92% 30.27 in 2.0 mi ESE 10.4 mph - N/A Snow Light Snow
11:33 PM 12.2 °F 0.7 °F 10.4 °F 92% 30.28 in 2.0 mi ESE 8.1 mph - N/A Snow Light Snow
11:54 PM 12.2 °F -0.2 °F 10.4 °F 92% 30.29 in 3.0 mi ESE 9.2 mph - N/A   Mostly Cloudy